| time (UTC) | temp F | wind direction | speed MPH | gust MPH | rain 1hr in | rain 24hr in | rain mn in | humidity % | barometer mb |
| 20260506201519 | 54 | 182 | 4.0 | 10.0 | 0.05 | 0.20 | 0.17 | 95 | 1006.1 |
| 20260506201325 | 55 | 183 | 3.0 | 10.0 | 0.05 | 0.20 | 0.17 | 95 | 1006.3 |
| 20260506200328 | 55 | 183 | 6.0 | 11.0 | 0.04 | 0.18 | 0.15 | 95 | 1006.4 |
| 20260506200025 | 54 | 180 | 5.0 | 10.0 | 0.04 | 0.18 | 0.15 | 95 | 1006.1 |
| 20260506195331 | 55 | 150 | 4.0 | 11.0 | 0.04 | 0.17 | 0.14 | 95 | 1006.5 |
| 20260506194628 | 54 | 199 | 7.0 | 11.0 | 0.07 | 0.17 | 0.14 | 94 | 1006.2 |
| 20260506194353 | 55 | 242 | 6.0 | 12.0 | 0.08 | 0.17 | 0.14 | 95 | 1006.5 |
| 20260506193325 | 55 | 159 | 5.0 | 10.0 | 0.10 | 0.16 | 0.13 | 94 | 1006.4 |
| 20260506193103 | 54 | 174 | 6.0 | 10.0 | 0.11 | 0.16 | 0.13 | 94 | 1006.1 |
| 20260506192321 | 55 | 204 | 6.0 | 14.0 | 0.13 | 0.16 | 0.13 | 94 | 1006.4 |
| 20260506191521 | 55 | 192 | 8.0 | 14.0 | 0.12 | 0.15 | 0.12 | 93 | 1006.4 |
| 20260506191319 | 55 | 192 | 6.0 | 12.0 | 0.12 | 0.15 | 0.12 | 93 | 1006.7 |
| 20260506190334 | 56 | 200 | 4.0 | 8.0 | 0.11 | 0.14 | 0.11 | 93 | 1006.8 |
| 20260506190020 | 55 | 203 | 4.0 | 8.0 | 0.10 | 0.13 | 0.10 | 92 | 1006.8 |
| 20260506185333 | 56 | 222 | 3.0 | 12.0 | 0.09 | 0.12 | 0.09 | 92 | 1007.0 |
| 20260506184529 | 55 | 208 | 4.0 | 12.0 | 0.06 | 0.09 | 0.06 | 91 | 1006.6 |
| 20260506184334 | 56 | 173 | 5.0 | 12.0 | 0.06 | 0.09 | 0.06 | 90 | 1007.0 |
| 20260506183328 | 57 | 172 | 8.0 | 15.0 | 0.03 | 0.06 | 0.03 | 89 | 1006.7 |
| 20260506183046 | 56 | 178 | 8.0 | 15.0 | 0.01 | 0.04 | 0.01 | 88 | 1006.3 |
| 20260506182347 | 57 | 215 | 5.0 | 11.0 | 0.00 | 0.03 | 0.00 | 87 | 1006.6 |
| 20260506181554 | 57 | 150 | 4.0 | 11.0 | 0.00 | 0.03 | 0.00 | 86 | 1006.2 |
| 20260506181340 | 58 | 152 | 6.0 | 11.0 | 0.00 | 0.03 | 0.00 | 86 | 1006.5 |
| 20260506180322 | 59 | 116 | 7.0 | 14.0 | 0.00 | 0.03 | 0.00 | 83 | 1006.7 |
| 20260506180104 | 59 | 151 | 5.0 | 10.0 | 0.00 | 0.03 | 0.00 | 83 | 1006.3 |
| 20260506175319 | 59 | 192 | 6.0 | 10.0 | 0.00 | 0.03 | 0.00 | 81 | 1006.6 |
| 20260506174525 | 60 | 135 | 5.0 | 13.0 | 0.00 | 0.03 | 0.00 | 81 | 1006.3 |
| 20260506174322 | 60 | 196 | 5.0 | 13.0 | 0.00 | 0.03 | 0.00 | 80 | 1006.6 |
| 20260506173316 | 60 | 189 | 6.0 | 11.0 | 0.00 | 0.03 | 0.00 | 80 | 1006.7 |
| 20260506173040 | 60 | 200 | 4.0 | 11.0 | 0.00 | 0.03 | 0.00 | 79 | 1006.5 |
| 20260506172331 | 61 | 160 | 7.0 | 12.0 | 0.00 | 0.03 | 0.00 | 80 | 1007.0 |
| 20260506171504 | 60 | 173 | 5.0 | 10.0 | 0.00 | 0.03 | 0.00 | 80 | 1006.9 |
| 20260506171323 | 61 | 139 | 7.0 | 11.0 | 0.00 | 0.03 | 0.00 | 80 | 1007.2 |
| 20260506170316 | 61 | 125 | 4.0 | 7.0 | 0.00 | 0.03 | 0.00 | 81 | 1007.5 |
| 20260506170022 | 60 | 165 | 3.0 | 11.0 | 0.00 | 0.03 | 0.00 | 80 | 1007.1 |
| 20260506165333 | 60 | 212 | 5.0 | 10.0 | 0.00 | 0.03 | 0.00 | 80 | 1007.6 |
| 20260506164524 | 60 | 137 | 7.0 | 12.0 | 0.00 | 0.03 | 0.00 | 80 | 1007.5 |
| 20260506164331 | 61 | 141 | 5.0 | 12.0 | 0.00 | 0.03 | 0.00 | 80 | 1007.9 |
| 20260506163323 | 61 | 156 | 7.0 | 12.0 | 0.00 | 0.03 | 0.00 | 80 | 1008.2 |
| 20260506163101 | 60 | 160 | 5.0 | 10.0 | 0.00 | 0.03 | 0.00 | 80 | 1007.8 |
| 20260506162316 | 60 | 193 | 4.0 | 7.0 | 0.00 | 0.03 | 0.00 | 81 | 1008.2 |
| 20260506161508 | 59 | 122 | 2.0 | 6.0 | 0.00 | 0.03 | 0.00 | 81 | 1008.1 |
| 20260506161317 | 60 | 140 | 4.0 | 8.0 | 0.00 | 0.03 | 0.00 | 81 | 1008.5 |
| 20260506160330 | 59 | 155 | 4.0 | 7.0 | 0.00 | 0.03 | 0.00 | 81 | 1008.5 |
| 20260506160025 | 59 | 186 | 4.0 | 7.0 | 0.00 | 0.03 | 0.00 | 81 | 1008.4 |
| 20260506155333 | 59 | 170 | 2.0 | 4.0 | 0.00 | 0.03 | 0.00 | 81 | 1008.9 |
| 20260506154623 | 58 | 159 | 3.0 | 8.0 | 0.00 | 0.03 | 0.00 | 81 | 1008.6 |
| 20260506154329 | 59 | 150 | 5.0 | 8.0 | 0.00 | 0.03 | 0.00 | 81 | 1009.0 |
| 20260506153332 | 59 | 136 | 2.0 | 8.0 | 0.00 | 0.03 | 0.00 | 81 | 1008.9 |
| 20260506153016 | 59 | 142 | 3.0 | 8.0 | 0.00 | 0.03 | 0.00 | 81 | 1008.5 |
| 20260506152327 | 59 | 153 | 3.0 | 5.0 | 0.00 | 0.03 | 0.00 | 80 | 1009.0 |
| 20260506151550 | 59 | 130 | 1.0 | 7.0 | 0.00 | 0.03 | 0.00 | 81 | 1008.7 |
| 20260506151349 | 59 | 118 | 1.0 | 7.0 | 0.00 | 0.03 | 0.00 | 80 | 1008.9 |
| 20260506150346 | 60 | 112 | 2.0 | 6.0 | 0.00 | 0.03 | 0.00 | 80 | 1008.9 |
| 20260506150029 | 59 | 107 | 3.0 | 6.0 | 0.00 | 0.03 | 0.00 | 80 | 1008.5 |
| 20260506145327 | 60 | 130 | 2.0 | 6.0 | 0.00 | 0.03 | 0.00 | 80 | 1008.7 |
| 20260506144602 | 59 | 149 | 3.0 | 6.0 | 0.00 | 0.03 | 0.00 | 80 | 1008.3 |
| 20260506144327 | 60 | 153 | 3.0 | 6.0 | 0.00 | 0.03 | 0.00 | 80 | 1008.5 |
| 20260506143321 | 59 | 198 | 3.0 | 5.0 | 0.00 | 0.03 | 0.00 | 81 | 1008.3 |
| 20260506143020 | 59 | 146 | 1.0 | 6.0 | 0.00 | 0.03 | 0.00 | 81 | 1008.1 |
| 20260506142321 | 59 | 186 | 3.0 | 8.0 | 0.00 | 0.03 | 0.00 | 82 | 1008.6 |
| 20260506141549 | 58 | 144 | 4.0 | 8.0 | 0.00 | 0.03 | 0.00 | 82 | 1008.3 |
| 20260506141315 | 58 | 156 | 4.0 | 7.0 | 0.00 | 0.03 | 0.00 | 81 | 1008.8 |
| 20260506140314 | 58 | 227 | 4.0 | 6.0 | 0.00 | 0.03 | 0.00 | 83 | 1009.0 |
| 20260506140010 | 57 | 196 | 1.0 | 5.0 | 0.00 | 0.03 | 0.00 | 83 | 1008.8 |
| 20260506135317 | 57 | 175 | 2.0 | 7.0 | 0.00 | 0.03 | 0.00 | 83 | 1009.2 |
| 20260506134542 | 56 | 196 | 2.0 | 6.0 | 0.00 | 0.03 | 0.00 | 83 | 1008.9 |
| 20260506134340 | 57 | 163 | 3.0 | 6.0 | 0.00 | 0.03 | 0.00 | 83 | 1009.2 |
| 20260506133333 | 57 | 217 | 2.0 | 6.0 | 0.00 | 0.03 | 0.00 | 84 | 1009.3 |
| 20260506133019 | 56 | 217 | 2.0 | 6.0 | 0.00 | 0.03 | 0.00 | 84 | 1009.0 |
| 20260506132313 | 56 | 210 | 3.0 | 6.0 | 0.00 | 0.03 | 0.00 | 83 | 1009.2 |
| 20260506131550 | 56 | 142 | 2.0 | 5.0 | 0.00 | 0.03 | 0.00 | 83 | 1008.6 |
| 20260506131355 | 56 | 211 | 2.0 | 5.0 | 0.00 | 0.03 | 0.00 | 83 | 1009.0 |
| 20260506130330 | 56 | 194 | 1.0 | 7.0 | 0.00 | 0.03 | 0.00 | 83 | 1009.2 |
| 20260506130051 | 55 | 194 | 4.0 | 7.0 | 0.00 | 0.03 | 0.00 | 83 | 1008.8 |
| 20260506125352 | 56 | 168 | 3.0 | 6.0 | 0.00 | 0.03 | 0.00 | 84 | 1009.1 |
| 20260506124500 | 55 | 140 | 1.0 | 6.0 | 0.00 | 0.03 | 0.00 | 84 | 1008.8 |
| 20260506124327 | 55 | 137 | 3.0 | 6.0 | 0.00 | 0.03 | 0.00 | 84 | 1009.1 |
| 20260506123323 | 55 | 151 | 4.0 | 8.0 | 0.00 | 0.03 | 0.00 | 85 | 1009.2 |
| 20260506123022 | 54 | 140 | 2.0 | 4.0 | 0.00 | 0.03 | 0.00 | 85 | 1008.9 |
| 20260506122344 | 54 | 116 | 2.0 | 4.0 | 0.00 | 0.03 | 0.00 | 86 | 1009.3 |
| 20260506121539 | 53 | 127 | 2.0 | 4.0 | 0.00 | 0.03 | 0.00 | 88 | 1009.1 |
| 20260506121330 | 53 | 128 | 0.0 | 4.0 | 0.00 | 0.03 | 0.00 | 89 | 1009.5 |
| 20260506120343 | 52 | 190 | 2.0 | 6.0 | 0.00 | 0.03 | 0.00 | 87 | 1009.7 |
| 20260506120030 | 52 | 200 | 1.0 | 6.0 | 0.00 | 0.03 | 0.00 | 87 | 1009.4 |
| 20260506115323 | 52 | 131 | 1.0 | 4.0 | 0.00 | 0.03 | 0.00 | 88 | 1009.7 |
| 20260506114607 | 51 | 135 | 2.0 | 6.0 | 0.00 | 0.03 | 0.00 | 88 | 1009.5 |
| 20260506114316 | 52 | 134 | 2.0 | 6.0 | 0.00 | 0.03 | 0.00 | 88 | 1009.8 |
| 20260506113314 | 52 | 174 | 1.0 | 7.0 | 0.00 | 0.03 | 0.00 | 88 | 1009.9 |
| 20260506113022 | 51 | 173 | 3.0 | 7.0 | 0.00 | 0.03 | 0.00 | 87 | 1009.5 |
| 20260506112321 | 51 | 127 | 1.0 | 7.0 | 0.00 | 0.03 | 0.00 | 87 | 1010.1 |